Portada
METAR-TAF:

METAR-TAF

Aeroports :

Harrisburg-Raleigh Airport

Harrisburg, Illinois, Estats Units d'Amèrica

latitud: 37-48-41N, longitud: 088-32-57W, altitud: 121 m

Observació

L'informe es va fer fa 28 minuts, a les 23:35 UTC
Vent 7 kt del Nord-Oest amb ràfegues de 15 kt
Temperatura 25°C
Humitat 44%
Pressió 1017 hPa
Visibilitat: 16.1 km
Núvols disperses a una alçada de 6000 ft

METAR: KHSB 292335Z AUTO 32007G15KT 10SM SCT060 25/12 A3004 RMK AO2 T02510123

Hora: 19:03 (00:03 UTC)


TAF: manca

Observacions i pronòstics meteorològics de més de 4000 aeroports (METAR i TAF).

Les estacions disponibles són els punts grocs i vermells al mapa.

Posi el ratolí al punt desitjat per veure el nom de l'estació.

Feu clic per veure les observacions i els pronòstics meteorològics.

Per canviar el mapa: feu clic els botons verds amb una creu de color negre per apropar; al botó verd amb un guió per allunyar la imatge; o en les fletxes verdes per a mapes adjacents.


METAR-TAF: